Showing default

OPS 3367 A, 734

Orbit data source: Space-Track

OPS 3367 A, 734 is an American payload satellite in SSO that was launched on Sun, 19 Jan 1964 UTC via a THOR SLV-2 AGENA D launch vehicle from the Air Force Western Test Range (AFWTR). Payloads include a variety of satellites, spacecraft, and rockets equipped with specific instruments for various scientific and technological missions. These include communications satellites like Starlink; space stations such as the ISS; scientific satellites like the Hubble; Earth observation satellites from companies like Planet Labs, Umbra, and HawkEye 360; GPS; miniature CubeSats for education and research; and military/defense satellites.

Loading next visibility...
OPS 3367 A details
Identifier
734, 1964-002B
Orbit
SSO
Last TLE update16 hours ago
Origin
Flag of USNRO/SAFSP (US)
ManufacturerRCA/East Windsor
MissionDefense Weather
Bus & MotorP35, Unknown motor
Mass50 kg wet, 50 kg dry
Launch date (UTC)
1964-01-19 (61 years ago)
Launch vehicle
THOR SLV-2 AGENA D
Launch site
Air Force Western Test Range (AFWTR)
Object type
Payload
Rocket body
Debris
Shape & HBRCyl, 0.6 m
Radar Cross Section0.377 m², Medium (>0.1 m² and < 1m²)

Expand to show TLE details & history

TLE from 16 hours ago
0 OPS 3367 A
1 00734U 64002B   25024.35055111  .00000415  00000-0  18095-3 0  9996
2 00734  98.9781 294.3441 0013733 221.1537 138.8609 14.29469049176066
Epoch: 2025-01-24T08:24Z
Definitive object data (Epoch: 2025-01-24T08:24:47.615Z)
Latitude-0.00006°
Longitude44.23074°
Altitude803.849 km
Speed7.448 km/s
True Right ascension19h 37m 22s
True Declination0° 00' 00"
Sunlit
Object was in daylight at TLE epoch
Visualization TLE readout
Latitude25.11339°
Longitude-130.8652°
Altitude792.317 km
Speed7.462 km/s
Apparent Right ascension10h 16m 14s
Apparent Declination-6° 58' 30"
Sunlit
Object is in full shadow
Visualization observer readout
Local Sidereal Time01:33:02
Azimuth66.738° ENE
Elevation-35.125°
Doppler factor1
Orbital elements
Apogee altitude800.51 km
Perigee altitude780.82 km
Semi-major axis7,168.802 km
Eccentricity0.0013733
Inclination98.9781°
RAAN294.3441°
Arg. of periapsis221.1537°
True anomaly138.9643°
Mean anomaly138.8609°
Eccentric anomaly138.91261°
Mean motion3.5758 °/min
BSTAR0.00018095
Orbital period100.68 mins
Loading maneuver chart data...
Loading historical data...
Loading historical data...
Loading historical data...
Loading historical data...
Loading historical data...
Loading historical data...
Loading historical data...
Other satellites on launch #2 in the year 1964 (1964-01-19 UTC)

OPS 3367 A Visibility forecast

Observer location: undefined°, undefined

Span
Click to sort rows by Start time (UTC) header in descending order
Start Az.
Max El. time (UTC)
Max El. Az.
Max El.
End time (UTC)
End Az.
10 mins2025-01-25 06:49:15.101Z13.178° NNE2025-01-25 06:54:15.101Z243.327° WSW44.948°2025-01-25 06:59:15.101Z196.515° SSW
4 mins2025-01-25 16:31:15.101Z82.959° E2025-01-25 16:33:15.101Z55.007° ENE16.881°2025-01-25 16:35:15.101Z29.815° NE
8 mins2025-01-25 18:08:15.101Z183.968° SSW2025-01-25 18:12:15.101Z283.803° WNW39.921°2025-01-25 18:16:15.101Z336.543° NNW
|